Change the Weather History Date:

Thursday, December 27, 2012

  Actual Average Record
Temperature  
Mean Temperature 38 °F -  
Max Temperature 41 °F 39 °F 59 °F (2011)
Min Temperature 34 °F 25 °F 17 °F (1998)
Degree Days  
Heating Degree Days 28    
Moisture  
Dew Point 30 °F    
Average Humidity 76    
Maximum Humidity 93    
Minimum Humidity 57    
Precipitation  
Precipitation 0.03 in - - ()
Sea Level Pressure  
Sea Level Pressure 29.57 in    
Wind  
Wind Speed 17 mph (NW)    
Max Wind Speed 24 mph    
Max Gust Speed 37 mph    
Visibility 9 miles    
Events Rain    
Averages and records for this station are not official NWS values.
T = Trace of Precipitation, MM = Missing Value Source: NWS Daily Summary

Daily Weather History Graph

Daily Weather History Graph

Search for Another Location

Airport or City:

Trip Planner

Search our weather history database for the weather conditions in past years. The results will help you decide how hot, cold, wet, or windy it might be!

Date:

Astronomy

Dec. 27, 2012 Rise Set
Actual Time 7:21 AM EST 4:41 PM EST
Civil Twilight 6:50 AM EST 5:12 PM EST
Nautical Twilight 6:16 AM EST 5:46 PM EST
Astronomical Twilight 5:43 AM EST 6:19 PM EST
Moon 4:22 PM EST (12/27) 6:30 AM EST (12/27)
Length of Visible Light 10h 21m
Length of Day
9h 20m
Full, 100% of the Moon is Illuminated
Dec 27
Full
Dec 28
Full
Jan 4
Last Quarter
Jan 11
New
Jan 18
First Quarter

Hourly Weather History & Observations

Time (EST) Temp. Windchill Dew Point Humidity Pressure Visibility Wind Dir Wind Speed Gust Speed Precip Events Conditions
12:54 AM 39.9 °F 30.5 °F 37.0 °F 89% 29.33 in 10.0 mi NE 19.6 mph 32.2 mph 0.00 in Rain Light Rain
1:54 AM 41.0 °F 31.4 °F 37.0 °F 86% 29.33 in 10.0 mi NE 21.9 mph 28.8 mph 0.00 in   Overcast
2:54 AM 41.0 °F 33.1 °F 37.9 °F 89% 29.32 in 10.0 mi NNE 15.0 mph 26.5 mph N/A   Overcast
3:54 AM 41.0 °F 33.5 °F 37.9 °F 89% 29.31 in 9.0 mi NNE 13.8 mph 25.3 mph 0.00 in   Overcast
4:54 AM 41.0 °F 33.9 °F 37.9 °F 89% 29.34 in 10.0 mi West 12.7 mph - N/A   Overcast
5:54 AM 39.9 °F 32.9 °F 37.9 °F 93% 29.37 in 4.0 mi NNW 11.5 mph - 0.01 in Rain Light Rain
6:04 AM 37.4 °F 28.9 °F 35.6 °F 93% 29.38 in 6.0 mi NW 13.8 mph - 0.01 in Rain Light Rain
6:13 AM 37.4 °F 28.5 °F 35.6 °F 93% 29.38 in 4.0 mi NW 15.0 mph 24.2 mph 0.01 in Rain Light Rain
6:17 AM 37.4 °F 29.3 °F 33.8 °F 87% 29.38 in 4.0 mi NW 12.7 mph 24.2 mph 0.01 in Rain Light Rain
6:25 AM 37.4 °F 28.5 °F 33.8 °F 87% 29.39 in 6.0 mi NW 15.0 mph 21.9 mph 0.01 in Rain Light Rain
6:40 AM 37.4 °F 28.9 °F 33.8 °F 87% 29.39 in 8.0 mi NW 13.8 mph 26.5 mph 0.01 in Rain Light Rain
6:54 AM 37.0 °F 28.1 °F 34.0 °F 89% 29.41 in 6.0 mi NW 15.0 mph 26.5 mph 0.01 in Rain Light Rain
7:30 AM 37.4 °F 27.5 °F 33.8 °F 87% 29.42 in 10.0 mi NW 18.4 mph 26.5 mph 0.00 in   Overcast
7:54 AM 37.9 °F 28.9 °F 35.1 °F 89% 29.44 in 5.0 mi NW 16.1 mph 23.0 mph 0.00 in   Overcast
8:54 AM 36.0 °F 26.7 °F 33.1 °F 89% 29.50 in 7.0 mi NW 15.0 mph 25.3 mph 0.00 in Rain Light Rain
9:02 AM 35.6 °F 25.2 °F 33.8 °F 93% 29.50 in 7.0 mi NW 18.4 mph 26.5 mph 0.01 in Rain Light Rain
9:54 AM 36.0 °F 26.3 °F 30.9 °F 82% 29.55 in 10.0 mi WNW 16.1 mph 24.2 mph 0.01 in   Overcast
10:54 AM 37.9 °F 28.9 °F 30.0 °F 73% 29.57 in 10.0 mi WNW 16.1 mph 26.5 mph N/A   Overcast
11:21 AM 37.4 °F 26.4 °F 28.4 °F 70% 29.59 in 10.0 mi WNW 23.0 mph 28.8 mph N/A   Overcast
11:34 AM 37.4 °F 27.8 °F 28.4 °F 70% 29.59 in 10.0 mi WNW 17.3 mph 28.8 mph N/A   Overcast
11:43 AM 37.4 °F 26.1 °F 28.4 °F 70% 29.59 in 10.0 mi WNW 24.2 mph 31.1 mph N/A   Overcast
11:54 AM 36.0 °F 26.7 °F 27.0 °F 70% 29.60 in 10.0 mi WNW 15.0 mph 36.8 mph N/A   Overcast
12:36 PM 35.6 °F 24.2 °F 26.6 °F 70% 29.61 in 10.0 mi WNW 21.9 mph 35.7 mph N/A   Overcast
12:54 PM 36.0 °F 25.3 °F 26.1 °F 67% 29.62 in 10.0 mi WNW 19.6 mph 29.9 mph N/A   Overcast
1:54 PM 36.0 °F 27.1 °F 25.0 °F 64% 29.64 in 10.0 mi NW 13.8 mph 31.1 mph N/A   Overcast
2:54 PM 36.0 °F 26.0 °F 25.0 °F 64% 29.67 in 10.0 mi NW 17.3 mph 32.2 mph N/A   Overcast
3:54 PM 36.0 °F 25.3 °F 24.1 °F 62% 29.70 in 10.0 mi WNW 19.6 mph 28.8 mph N/A   Overcast
4:54 PM 36.0 °F 24.7 °F 23.0 °F 59% 29.74 in 10.0 mi WNW 21.9 mph 31.1 mph N/A   Overcast
5:54 PM 35.1 °F 24.8 °F 23.0 °F 61% 29.79 in 10.0 mi WNW 17.3 mph 25.3 mph N/A   Overcast
6:54 PM 35.1 °F 23.0 °F 21.0 °F 57% 29.83 in 10.0 mi NW 24.2 mph 33.4 mph N/A   Overcast
7:54 PM 34.0 °F 26.0 °F 21.0 °F 59% 29.85 in 10.0 mi WNW 10.4 mph 23.0 mph N/A   Overcast
8:54 PM 34.0 °F 26.0 °F 21.0 °F 59% 29.88 in 10.0 mi NW 10.4 mph - N/A   Overcast
9:54 PM 34.0 °F 24.6 °F 21.0 °F 59% 29.91 in 10.0 mi NW 13.8 mph 20.7 mph N/A   Overcast
10:54 PM 34.0 °F 25.5 °F 21.9 °F 61% 29.93 in 10.0 mi NW 11.5 mph 23.0 mph N/A   Overcast
11:54 PM 34.0 °F 25.5 °F 21.9 °F 61% 29.93 in 10.0 mi NW 11.5 mph 25.3 mph N/A   Overcast